sat.trackr.live / text

‹ back to catalog

KUIPER-00053

NORAD 64513 · 2025-134P

PAYLOAD ACTIVE UNKNOWN

§ Identity

Operator
Country
US
Launch date
2025-06-23
Launch site
AFETR
Launch vehicle
Mass (kg)
RCS (m²)

External: N2YO · Heavens-Above · Gunter

§ Orbital elements

Epoch: 2026-05-24T23:13:15.466368Z

Period
97.19 min
Inclination
51.9000°
Eccentricity
0.0001852
Mean motion
14.81660190 rev/d
Perigee alt
622.8 km
Apogee alt
625.4 km
Semi-major
7,002.2 km
B*
2.6696e-4
RAAN
245.2885°
Arg perigee
117.5967°
Mean anomaly
242.5184°
Rev number
5,151

§ Raw data

KUIPER-000531 64513U 25134P   26144.96754012  .00001897  00000+0  26696-3 0  99912 64513  51.9000 245.2885 0001852 117.5967 242.5184 14.81660190 51516

JSON: /api/v1/satellites/64513 · /tle

For live sub-satellite position, see the globe view (requires WebGL).

§ Visibility from observer

Set your observer location to see the next 7 days of passes ≥ 10°. The values pass through the URL so the page stays shareable.

No JS? Fill the form by hand. The geolocation button needs JavaScript.